Observations

Aujourd'hui

  • Température

    Max: 1.4° à 15:41:47

    Moy: -0.3°

    Min: -2.1° à 05:20:47

 

  • Humidité

    Max: 98% à 20:06:03

    Min: 98% à 20:06:03

 

  • Précipitation accumulée

    Aujourd'hui: 0 mm

    Ce mois-ci: 20 mm

    Cette année: 112 mm



HeureTemperaturePoint de roséeHumiditéDir. VentVitesseRafalesPressionPrecip.Precip. Accum.
20:04 1.3°C 1°C 98% 0 km/h 0 km/h 1028 hPa 0 mm/hr 0 mm
19:59 1.3°C 1°C 98% 0 km/h 3.2 km/h 1028 hPa 0 mm/hr 0 mm
19:54 1.2°C 0.9°C 98% 0 km/h 3.2 km/h 1028 hPa 0 mm/hr 0 mm
19:49 1.2°C 0.9°C 98% 0 km/h 4.7 km/h 1028 hPa 0 mm/hr 0 mm
19:44 1.2°C 0.9°C 98% 2.1 km/h 4.7 km/h 1028 hPa 0 mm/hr 0 mm
19:39 1.2°C 0.9°C 98% 0 km/h 4 km/h 1028 hPa 0 mm/hr 0 mm
19:34 1.2°C 0.9°C 98% 2.6 km/h 2.6 km/h 1028 hPa 0 mm/hr 0 mm
19:29 1.2°C 0.9°C 98% 0 km/h 0 km/h 1028 hPa 0 mm/hr 0 mm
19:24 1.2°C 0.9°C 98% 0 km/h 5.5 km/h 1028 hPa 0 mm/hr 0 mm
19:19 1.2°C 0.9°C 98% 0 km/h 5.5 km/h 1028 hPa 0 mm/hr 0 mm
19:14 1.1°C 0.8°C 98% 0 km/h 2.1 km/h 1028 hPa 0 mm/hr 0 mm
19:09 1.1°C 0.8°C 98% 0 km/h 2.9 km/h 1028 hPa 0 mm/hr 0 mm
19:04 1.1°C 0.8°C 98% 0 km/h 4 km/h 1028 hPa 0 mm/hr 0 mm
18:59 1.1°C 0.8°C 98% 0 km/h 4 km/h 1028 hPa 0 mm/hr 0 mm
18:54 1.1°C 0.8°C 98% 0 km/h 2.9 km/h 1028 hPa 0 mm/hr 0 mm
18:49 1.1°C 0.8°C 98% 0 km/h 2.6 km/h 1027 hPa 0 mm/hr 0 mm
18:44 1.1°C 0.8°C 98% 2.6 km/h 4 km/h 1027 hPa 0 mm/hr 0 mm
18:39 1.1°C 0.8°C 98% 2.6 km/h 4 km/h 1027 hPa 0 mm/hr 0 mm
18:34 1.1°C 0.8°C 98% 0 km/h 5 km/h 1027 hPa 0 mm/hr 0 mm
18:29 1.1°C 0.8°C 98% 4.7 km/h 5 km/h 1027 hPa 0 mm/hr 0 mm
18:24 1.1°C 0.8°C 98% 0 km/h 4.3 km/h 1027 hPa 0 mm/hr 0 mm
18:19 1.1°C 0.8°C 98% 0 km/h 4.3 km/h 1027 hPa 0 mm/hr 0 mm
18:14 1.1°C 0.8°C 98% 4.3 km/h 9 km/h 1027 hPa 0 mm/hr 0 mm
18:09 1.1°C 0.8°C 98% 0 km/h 9 km/h 1027 hPa 0 mm/hr 0 mm
18:04 1.1°C 0.8°C 98% 2.9 km/h 4.3 km/h 1027 hPa 0 mm/hr 0 mm
17:59 1.1°C 0.8°C 98% 0 km/h 4.3 km/h 1027 hPa 0 mm/hr 0 mm
17:54 1.1°C 0.8°C 98% 4.3 km/h 4.3 km/h 1027 hPa 0 mm/hr 0 mm
17:49 1.1°C 0.8°C 98% 4 km/h 4 km/h 1027 hPa 0 mm/hr 0 mm
17:44 1.1°C 0.8°C 98% 0 km/h 4.3 km/h 1027 hPa 0 mm/hr 0 mm
17:39 1.1°C 0.8°C 98% 2.9 km/h 4.3 km/h 1027 hPa 0 mm/hr 0 mm
17:34 1.1°C 0.8°C 98% 4.3 km/h 5.8 km/h 1027 hPa 0 mm/hr 0 mm
17:29 1.1°C 0.8°C 98% 0 km/h 5.8 km/h 1027 hPa 0 mm/hr 0 mm
17:24 1.1°C 0.8°C 98% 0 km/h 4.3 km/h 1027 hPa 0 mm/hr 0 mm
17:19 1.1°C 0.8°C 98% 0 km/h 4.3 km/h 1027 hPa 0 mm/hr 0 mm
17:14 1.1°C 0.8°C 98% 3.2 km/h 4.3 km/h 1027 hPa 0 mm/hr 0 mm
17:09 1.1°C 0.8°C 98% 0 km/h 3.2 km/h 1027 hPa 0 mm/hr 0 mm
17:04 1.1°C 0.8°C 98% 0 km/h 4 km/h 1026 hPa 0 mm/hr 0 mm
16:59 1.1°C 0.8°C 98% 0 km/h 5.8 km/h 1026 hPa 0 mm/hr 0 mm
16:54 1.1°C 0.8°C 98% 0 km/h 5.8 km/h 1026 hPa 0 mm/hr 0 mm
16:49 1.2°C 0.9°C 98% 2.6 km/h 4.3 km/h 1026 hPa 0 mm/hr 0 mm
16:44 1.2°C 0.9°C 98% 4 km/h 4 km/h 1026 hPa 0 mm/hr 0 mm
16:39 1.2°C 0.9°C 98% 1.8 km/h 4 km/h 1026 hPa 0 mm/hr 0 mm
16:34 1.2°C 0.9°C 98% 4 km/h 4 km/h 1026 hPa 0 mm/hr 0 mm
16:29 1.2°C 0.9°C 98% 0 km/h 3.2 km/h 1026 hPa 0 mm/hr 0 mm
16:24 1.2°C 0.9°C 98% 2.1 km/h 3.2 km/h 1026 hPa 0 mm/hr 0 mm
16:19 1.3°C 1°C 98% 0 km/h 5.5 km/h 1026 hPa 0 mm/hr 0 mm
16:14 1.3°C 1°C 98% 0 km/h 5.5 km/h 1026 hPa 0 mm/hr 0 mm
16:09 1.3°C 1°C 98% 5.5 km/h 5.5 km/h 1026 hPa 0 mm/hr 0 mm
16:04 1.3°C 1°C 98% 5 km/h 9.3 km/h 1026 hPa 0 mm/hr 0 mm
15:59 1.3°C 1°C 98% 4 km/h 9.3 km/h 1026 hPa 0 mm/hr 0 mm
15:54 1.3°C 1°C 98% 9.3 km/h 9.3 km/h 1026 hPa 0 mm/hr 0 mm
15:49 1.3°C 1°C 98% 2.1 km/h 6.4 km/h 1026 hPa 0 mm/hr 0 mm
15:44 1.3°C 1°C 98% 2.9 km/h 7.2 km/h 1026 hPa 0 mm/hr 0 mm
15:39 1.4°C 1.1°C 98% 5.8 km/h 7.2 km/h 1026 hPa 0 mm/hr 0 mm
15:34 1.4°C 1.1°C 98% 0 km/h 7.9 km/h 1026 hPa 0 mm/hr 0 mm
15:29 1.4°C 1.1°C 98% 0 km/h 7.9 km/h 1026 hPa 0 mm/hr 0 mm
15:24 1.4°C 1.1°C 98% 2.6 km/h 4.3 km/h 1026 hPa 0 mm/hr 0 mm
15:19 1.4°C 1.1°C 98% 0 km/h 5 km/h 1026 hPa 0 mm/hr 0 mm
15:14 1.4°C 1.1°C 98% 0 km/h 5 km/h 1026 hPa 0 mm/hr 0 mm
15:09 1.3°C 1°C 98% 2.6 km/h 6.9 km/h 1026 hPa 0 mm/hr 0 mm
15:04 1.3°C 1°C 98% 4.7 km/h 6.9 km/h 1026 hPa 0 mm/hr 0 mm
14:59 1.3°C 1°C 98% 2.6 km/h 5.8 km/h 1026 hPa 0 mm/hr 0 mm
14:54 1.3°C 1°C 98% 1.8 km/h 5.8 km/h 1026 hPa 0 mm/hr 0 mm
14:49 1.3°C 1°C 98% 5.8 km/h 5.8 km/h 1026 hPa 0 mm/hr 0 mm
14:44 1.2°C 0.9°C 98% 3.2 km/h 4.3 km/h 1026 hPa 0 mm/hr 0 mm
14:39 1.3°C 1°C 98% 1.8 km/h 4.3 km/h 1026 hPa 0 mm/hr 0 mm
14:34 1.3°C 1°C 98% 4 km/h 4 km/h 1026 hPa 0 mm/hr 0 mm
14:29 1.3°C 1°C 98% 2.1 km/h 5 km/h 1026 hPa 0 mm/hr 0 mm
14:24 1.2°C 0.9°C 98% 2.9 km/h 5 km/h 1026 hPa 0 mm/hr 0 mm
14:19 1.1°C 0.8°C 98% 2.1 km/h 6.1 km/h 1026 hPa 0 mm/hr 0 mm
14:14 1.1°C 0.8°C 98% 3.2 km/h 6.1 km/h 1026 hPa 0 mm/hr 0 mm
14:09 1.1°C 0.8°C 98% 2.6 km/h 5.5 km/h 1026 hPa 0 mm/hr 0 mm
14:04 1.1°C 0.8°C 98% 0 km/h 6.4 km/h 1026 hPa 0 mm/hr 0 mm
13:59 1.1°C 0.8°C 98% 4.7 km/h 7.2 km/h 1026 hPa 0 mm/hr 0 mm
13:54 1.1°C 0.8°C 98% 0 km/h 7.2 km/h 1026 hPa 0 mm/hr 0 mm
13:49 1.1°C 0.8°C 98% 0 km/h 5.5 km/h 1026 hPa 0 mm/hr 0 mm
13:44 1.1°C 0.8°C 98% 3.2 km/h 5.5 km/h 1026 hPa 0 mm/hr 0 mm
13:39 1°C 0.7°C 98% 2.6 km/h 6.4 km/h 1026 hPa 0 mm/hr 0 mm
13:34 1.1°C 0.8°C 98% 4 km/h 6.4 km/h 1026 hPa 0 mm/hr 0 mm
13:29 1.1°C 0.8°C 98% 4 km/h 5 km/h 1026 hPa 0 mm/hr 0 mm
13:24 1°C 0.7°C 98% 2.6 km/h 2.9 km/h 1026 hPa 0 mm/hr 0 mm
13:19 1°C 0.7°C 98% 2.6 km/h 6.1 km/h 1026 hPa 0 mm/hr 0 mm
13:14 1°C 0.7°C 98% 2.9 km/h 6.1 km/h 1026 hPa 0 mm/hr 0 mm
13:09 1°C 0.7°C 98% 6.1 km/h 6.1 km/h 1026 hPa 0 mm/hr 0 mm
13:04 1°C 0.7°C 98% 4 km/h 4.3 km/h 1026 hPa 0 mm/hr 0 mm
12:59 0.9°C 0.6°C 98% 0 km/h 5.8 km/h 1026 hPa 0 mm/hr 0 mm
12:54 0.9°C 0.6°C 98% 0 km/h 5.8 km/h 1026 hPa 0 mm/hr 0 mm
12:49 0.9°C 0.6°C 98% 5.5 km/h 5.5 km/h 1026 hPa 0 mm/hr 0 mm
12:44 0.9°C 0.6°C 98% 0 km/h 6.1 km/h 1026 hPa 0 mm/hr 0 mm
12:39 0.9°C 0.6°C 98% 0 km/h 6.1 km/h 1026 hPa 0 mm/hr 0 mm
12:34 0.8°C 0.5°C 98% 1.8 km/h 4.7 km/h 1026 hPa 0 mm/hr 0 mm
12:29 0.8°C 0.5°C 98% 2.6 km/h 5 km/h 1026 hPa 0 mm/hr 0 mm
12:24 0.8°C 0.5°C 98% 2.9 km/h 5.8 km/h 1026 hPa 0 mm/hr 0 mm
12:19 0.7°C 0.4°C 98% 5 km/h 6.4 km/h 1026 hPa 0 mm/hr 0 mm
12:14 0.8°C 0.5°C 98% 6.4 km/h 6.4 km/h 1026 hPa 0 mm/hr 0 mm
12:09 0.8°C 0.5°C 98% 0 km/h 4 km/h 1026 hPa 0 mm/hr 0 mm
12:04 0.7°C 0.4°C 98% 0 km/h 4 km/h 1026 hPa 0 mm/hr 0 mm
11:59 0.6°C 0.3°C 98% 1.8 km/h 4 km/h 1026 hPa 0 mm/hr 0 mm
11:54 0.6°C 0.3°C 98% 0 km/h 3.2 km/h 1026 hPa 0 mm/hr 0 mm
11:49 0.6°C 0.3°C 98% 0 km/h 4.7 km/h 1026 hPa 0 mm/hr 0 mm
11:44 0.5°C 0.2°C 98% 0 km/h 4.7 km/h 1026 hPa 0 mm/hr 0 mm
11:39 0.4°C 0.1°C 98% 2.9 km/h 2.9 km/h 1026 hPa 0 mm/hr 0 mm
11:34 0.4°C 0.1°C 98% 0 km/h 2.9 km/h 1026 hPa 0 mm/hr 0 mm
11:29 0.4°C 0.1°C 98% 0 km/h 3.2 km/h 1026 hPa 0 mm/hr 0 mm
11:24 0.3°C 0°C 98% 0 km/h 3.2 km/h 1026 hPa 0 mm/hr 0 mm
11:19 0.3°C 0°C 98% 0 km/h 5 km/h 1026 hPa 0 mm/hr 0 mm
11:14 0.2°C -0.1°C 98% 0 km/h 5.8 km/h 1026 hPa 0 mm/hr 0 mm
11:09 0.2°C -0.1°C 98% 5.8 km/h 6.4 km/h 1026 hPa 0 mm/hr 0 mm
11:04 0.2°C -0.1°C 98% 1.8 km/h 6.4 km/h 1026 hPa 0 mm/hr 0 mm
10:59 0.3°C 0°C 98% 2.6 km/h 2.6 km/h 1026 hPa 0 mm/hr 0 mm
10:54 0.2°C -0.1°C 98% 0 km/h 2.6 km/h 1026 hPa 0 mm/hr 0 mm
10:49 0.2°C -0.1°C 98% 1.8 km/h 2.6 km/h 1026 hPa 0 mm/hr 0 mm
10:44 0.2°C -0.1°C 98% 1.8 km/h 2.6 km/h 1026 hPa 0 mm/hr 0 mm
10:39 0.1°C -0.2°C 98% 0 km/h 2.6 km/h 1026 hPa 0 mm/hr 0 mm
10:34 0.1°C -0.2°C 98% 0 km/h 2.6 km/h 1026 hPa 0 mm/hr 0 mm
10:29 0°C -0.3°C 98% 0 km/h 1.8 km/h 1026 hPa 0 mm/hr 0 mm
10:24 0°C -0.3°C 98% 0 km/h 6.1 km/h 1026 hPa 0 mm/hr 0 mm
10:19 -0.1°C -0.4°C 98% 0 km/h 6.1 km/h 1025 hPa 0 mm/hr 0 mm
10:14 -0.1°C -0.4°C 98% 2.6 km/h 2.6 km/h 1025 hPa 0 mm/hr 0 mm
10:09 -0.2°C -0.5°C 98% 0 km/h 1.8 km/h 1025 hPa 0 mm/hr 0 mm
10:04 -0.3°C -0.6°C 98% 0 km/h 0 km/h 1025 hPa 0 mm/hr 0 mm
09:59 -0.3°C -0.6°C 98% 0 km/h 0 km/h 1025 hPa 0 mm/hr 0 mm
09:54 -0.4°C -0.7°C 98% 0 km/h 2.6 km/h 1025 hPa 0 mm/hr 0 mm
09:49 -0.4°C -0.7°C 98% 0 km/h 2.6 km/h 1025 hPa 0 mm/hr 0 mm
09:44 -0.4°C -0.7°C 98% 0 km/h 0 km/h 1025 hPa 0 mm/hr 0 mm
09:39 -0.5°C -0.8°C 98% 0 km/h 0 km/h 1025 hPa 0 mm/hr 0 mm
09:34 -0.5°C -0.8°C 98% 0 km/h 0 km/h 1025 hPa 0 mm/hr 0 mm
09:29 -0.5°C -0.8°C 98% 0 km/h 0 km/h 1025 hPa 0 mm/hr 0 mm
09:24 -0.6°C -0.9°C 98% 0 km/h 0 km/h 1025 hPa 0 mm/hr 0 mm
09:19 -0.6°C -0.9°C 98% 0 km/h 0 km/h 1025 hPa 0 mm/hr 0 mm
09:14 -0.6°C -0.9°C 98% 0 km/h 6.4 km/h 1025 hPa 0 mm/hr 0 mm
09:09 -0.7°C -1°C 98% 0 km/h 6.4 km/h 1025 hPa 0 mm/hr 0 mm
09:04 -0.7°C -1°C 98% 6.4 km/h 6.4 km/h 1025 hPa 0 mm/hr 0 mm
08:59 -0.8°C -1.1°C 98% 4.3 km/h 4.3 km/h 1025 hPa 0 mm/hr 0 mm
08:54 -0.8°C -1.1°C 98% 1.8 km/h 3.2 km/h 1025 hPa 0 mm/hr 0 mm
08:49 -0.8°C -1.1°C 98% 0 km/h 0 km/h 1025 hPa 0 mm/hr 0 mm
08:44 -0.9°C -1.2°C 98% 0 km/h 0 km/h 1025 hPa 0 mm/hr 0 mm
08:39 -0.9°C -1.2°C 98% 0 km/h 0 km/h 1025 hPa 0 mm/hr 0 mm
08:34 -1°C -1.3°C 98% 0 km/h 0 km/h 1025 hPa 0 mm/hr 0 mm
08:29 -1°C -1.3°C 98% 0 km/h 0 km/h 1025 hPa 0 mm/hr 0 mm
08:24 -1°C -1.3°C 98% 0 km/h 0 km/h 1025 hPa 0 mm/hr 0 mm
08:19 -1°C -1.3°C 98% 0 km/h 0 km/h 1024 hPa 0 mm/hr 0 mm
08:14 -1.1°C -1.4°C 98% 0 km/h 0 km/h 1024 hPa 0 mm/hr 0 mm
08:09 -1.1°C -1.4°C 98% 0 km/h 0 km/h 1024 hPa 0 mm/hr 0 mm
08:04 -1.1°C -1.4°C 98% 0 km/h 0 km/h 1024 hPa 0 mm/hr 0 mm
07:59 -1.2°C -1.5°C 98% 0 km/h 0 km/h 1024 hPa 0 mm/hr 0 mm
07:54 -1.2°C -1.5°C 98% 0 km/h 0 km/h 1024 hPa 0 mm/hr 0 mm
07:49 -1.2°C -1.5°C 98% 0 km/h 1.8 km/h 1024 hPa 0 mm/hr 0 mm
07:44 -1.2°C -1.5°C 98% 0 km/h 1.8 km/h 1024 hPa 0 mm/hr 0 mm
07:39 -1.3°C -1.6°C 98% 0 km/h 5.5 km/h 1024 hPa 0 mm/hr 0 mm
07:34 -1.3°C -1.6°C 98% 0 km/h 5.5 km/h 1024 hPa 0 mm/hr 0 mm
07:29 -1.3°C -1.6°C 98% 0 km/h 0 km/h 1024 hPa 0 mm/hr 0 mm
07:24 -1.4°C -1.7°C 98% 0 km/h 2.6 km/h 1024 hPa 0 mm/hr 0 mm
07:19 -1.4°C -1.7°C 98% 0 km/h 2.6 km/h 1023 hPa 0 mm/hr 0 mm
07:14 -1.4°C -1.7°C 98% 2.6 km/h 3.2 km/h 1023 hPa 0 mm/hr 0 mm
07:09 -1.4°C -1.7°C 98% 0 km/h 3.2 km/h 1023 hPa 0 mm/hr 0 mm
07:04 -1.5°C -1.8°C 98% 3.2 km/h 3.2 km/h 1023 hPa 0 mm/hr 0 mm
06:59 -1.5°C -1.8°C 98% 1.8 km/h 2.9 km/h 1023 hPa 0 mm/hr 0 mm
06:54 -1.6°C -1.9°C 98% 0 km/h 2.1 km/h 1023 hPa 0 mm/hr 0 mm
06:49 -1.6°C -1.9°C 98% 0 km/h 1.8 km/h 1023 hPa 0 mm/hr 0 mm
06:44 -1.6°C -1.9°C 98% 0 km/h 0 km/h 1023 hPa 0 mm/hr 0 mm
06:39 -1.7°C -2°C 98% 0 km/h 0 km/h 1023 hPa 0 mm/hr 0 mm
06:34 -1.7°C -2°C 98% 0 km/h 4 km/h 1023 hPa 0 mm/hr 0 mm
06:29 -1.8°C -2.1°C 98% 0 km/h 4.7 km/h 1023 hPa 0 mm/hr 0 mm
06:24 -1.8°C -2.1°C 98% 0 km/h 4.7 km/h 1023 hPa 0 mm/hr 0 mm
06:19 -1.8°C -2.1°C 98% 0 km/h 3.2 km/h 1023 hPa 0 mm/hr 0 mm
06:14 -1.9°C -2.2°C 98% 0 km/h 2.6 km/h 1023 hPa 0 mm/hr 0 mm
06:09 -1.9°C -2.2°C 98% 0 km/h 2.6 km/h 1023 hPa 0 mm/hr 0 mm
06:04 -1.9°C -2.2°C 98% 2.6 km/h 2.6 km/h 1022 hPa 0 mm/hr 0 mm
05:59 -1.9°C -2.2°C 98% 0 km/h 2.6 km/h 1022 hPa 0 mm/hr 0 mm
05:54 -1.9°C -2.2°C 98% 1.8 km/h 2.6 km/h 1022 hPa 0 mm/hr 0 mm
05:49 -1.9°C -2.2°C 98% 0 km/h 2.6 km/h 1022 hPa 0 mm/hr 0 mm
05:44 -2°C -2.3°C 98% 0 km/h 0 km/h 1022 hPa 0 mm/hr 0 mm
05:39 -2°C -2.3°C 98% 0 km/h 0 km/h 1022 hPa 0 mm/hr 0 mm
05:34 -2°C -2.3°C 98% 0 km/h 0 km/h 1023 hPa 0 mm/hr 0 mm
05:29 -2°C -2.3°C 98% 0 km/h 0 km/h 1023 hPa 0 mm/hr 0 mm
05:24 -2°C -2.3°C 98% 0 km/h 0 km/h 1023 hPa 0 mm/hr 0 mm
05:19 -2.1°C -2.4°C 98% 0 km/h 2.1 km/h 1022 hPa 0 mm/hr 0 mm
05:14 -2°C -2.3°C 98% 0 km/h 2.1 km/h 1022 hPa 0 mm/hr 0 mm
05:09 -2°C -2.3°C 98% 0 km/h 4.3 km/h 1022 hPa 0 mm/hr 0 mm
05:04 -2°C -2.3°C 98% 0 km/h 7.2 km/h 1022 hPa 0 mm/hr 0 mm
04:59 -2°C -2.3°C 98% 4.3 km/h 7.2 km/h 1022 hPa 0 mm/hr 0 mm
04:54 -2°C -2.3°C 98% 0 km/h 2.6 km/h 1022 hPa 0 mm/hr 0 mm
04:49 -2°C -2.3°C 98% 0 km/h 5 km/h 1023 hPa 0 mm/hr 0 mm
04:44 -2°C -2.3°C 98% 0 km/h 5 km/h 1023 hPa 0 mm/hr 0 mm
04:39 -2°C -2.3°C 98% 5 km/h 5 km/h 1023 hPa 0 mm/hr 0 mm
04:34 -2°C -2.3°C 98% 0 km/h 4.7 km/h 1022 hPa 0 mm/hr 0 mm
04:29 -2°C -2.3°C 98% 0 km/h 6.1 km/h 1022 hPa 0 mm/hr 0 mm
04:24 -2°C -2.3°C 98% 0 km/h 6.1 km/h 1022 hPa 0 mm/hr 0 mm
04:19 -1.9°C -2.2°C 98% 6.1 km/h 6.1 km/h 1023 hPa 0 mm/hr 0 mm
04:14 -1.9°C -2.2°C 98% 0 km/h 4 km/h 1023 hPa 0 mm/hr 0 mm
04:09 -1.9°C -2.2°C 98% 3.2 km/h 4 km/h 1023 hPa 0 mm/hr 0 mm
04:04 -1.9°C -2.2°C 98% 0 km/h 5.8 km/h 1022 hPa 0 mm/hr 0 mm
03:59 -1.9°C -2.2°C 98% 2.9 km/h 5.8 km/h 1022 hPa 0 mm/hr 0 mm
03:55 -1.9°C -2.2°C 98% 4.3 km/h 5.8 km/h 1022 hPa 0 mm/hr 0 mm
03:51 -1.9°C -2.2°C 98% 2.1 km/h 5.5 km/h 1023 hPa 0 mm/hr 0 mm
03:48 -1.9°C -2.2°C 98% 0 km/h 2.6 km/h 1023 hPa 0 mm/hr 0 mm
03:29 -1.8°C -2.1°C 98% 5.8 km/h 5.8 km/h 1023 hPa 0 mm/hr 0 mm
03:25 -1.8°C -2.1°C 98% 0 km/h 2.1 km/h 1023 hPa 0 mm/hr 0 mm
03:19 -1.7°C -2°C 98% 0 km/h 4 km/h 1023 hPa 0 mm/hr 0 mm
03:14 -1.7°C -2°C 98% 0 km/h 4 km/h 1023 hPa 0 mm/hr 0 mm
03:09 -1.7°C -2°C 98% 4 km/h 4 km/h 1023 hPa 0 mm/hr 0 mm
03:04 -1.7°C -2°C 98% 0 km/h 2.6 km/h 1022 hPa 0 mm/hr 0 mm
02:59 -1.7°C -2°C 98% 0 km/h 4.7 km/h 1022 hPa 0 mm/hr 0 mm
02:54 -1.7°C -2°C 98% 2.6 km/h 4.7 km/h 1022 hPa 0 mm/hr 0 mm
02:49 -1.7°C -2°C 98% 3.2 km/h 4.3 km/h 1022 hPa 0 mm/hr 0 mm
02:44 -1.7°C -2°C 98% 0 km/h 5.5 km/h 1022 hPa 0 mm/hr 0 mm
02:39 -1.7°C -2°C 98% 2.1 km/h 5.5 km/h 1022 hPa 0 mm/hr 0 mm
02:34 -1.7°C -2°C 98% 0 km/h 2.1 km/h 1022 hPa 0 mm/hr 0 mm
02:29 -1.6°C -1.9°C 98% 0 km/h 2.1 km/h 1022 hPa 0 mm/hr 0 mm
02:24 -1.6°C -1.9°C 98% 0 km/h 4 km/h 1022 hPa 0 mm/hr 0 mm
02:19 -1.6°C -1.9°C 98% 0 km/h 4.7 km/h 1022 hPa 0 mm/hr 0 mm
02:14 -1.6°C -1.9°C 98% 0 km/h 4.7 km/h 1022 hPa 0 mm/hr 0 mm
02:09 -1.6°C -1.9°C 98% 0 km/h 4.7 km/h 1022 hPa 0 mm/hr 0 mm
02:04 -1.6°C -1.9°C 98% 1.8 km/h 4 km/h 1022 hPa 0 mm/hr 0 mm
01:59 -1.5°C -1.8°C 98% 0 km/h 4 km/h 1022 hPa 0 mm/hr 0 mm
01:54 -1.5°C -1.8°C 98% 4 km/h 4 km/h 1022 hPa 0 mm/hr 0 mm
01:49 -1.5°C -1.8°C 98% 0 km/h 2.9 km/h 1022 hPa 0 mm/hr 0 mm
01:44 -1.5°C -1.8°C 98% 0 km/h 4 km/h 1022 hPa 0 mm/hr 0 mm
01:39 -1.5°C -1.8°C 98% 0 km/h 6.1 km/h 1022 hPa 0 mm/hr 0 mm
01:34 -1.5°C -1.8°C 98% 0 km/h 6.1 km/h 1022 hPa 0 mm/hr 0 mm
01:29 -1.4°C -1.7°C 98% 6.1 km/h 6.1 km/h 1022 hPa 0 mm/hr 0 mm
01:24 -1.4°C -1.7°C 98% 0 km/h 4.7 km/h 1022 hPa 0 mm/hr 0 mm
01:19 -1.5°C -1.8°C 98% 0 km/h 4.7 km/h 1022 hPa 0 mm/hr 0 mm
01:14 -1.4°C -1.7°C 98% 0 km/h 5.8 km/h 1022 hPa 0 mm/hr 0 mm
01:09 -1.4°C -1.7°C 98% 0 km/h 5.8 km/h 1022 hPa 0 mm/hr 0 mm
01:04 -1.4°C -1.7°C 98% 5.8 km/h 5.8 km/h 1022 hPa 0 mm/hr 0 mm
00:59 -1.4°C -1.7°C 98% 0 km/h 4 km/h 1022 hPa 0 mm/hr 0 mm
00:54 -1.4°C -1.7°C 98% 0 km/h 0 km/h 1022 hPa 0 mm/hr 0 mm
00:49 -1.5°C -1.8°C 98% 0 km/h 0 km/h 1022 hPa 0 mm/hr 0 mm
00:44 -1.4°C -1.7°C 98% 0 km/h 0 km/h 1022 hPa 0 mm/hr 0 mm
00:39 -1.4°C -1.7°C 98% 0 km/h 4.7 km/h 1022 hPa 0 mm/hr 0 mm
00:34 -1.4°C -1.7°C 98% 0 km/h 6.4 km/h 1022 hPa 0 mm/hr 0 mm
00:29 -1.4°C -1.7°C 98% 0 km/h 6.4 km/h 1022 hPa 0 mm/hr 0 mm
00:24 -1.4°C -1.7°C 98% 0 km/h 0 km/h 1022 hPa 0 mm/hr 0 mm
00:19 -1.4°C -1.7°C 98% 0 km/h 3.2 km/h 1022 hPa 0 mm/hr 0 mm
00:14 -1.4°C -1.7°C 98% 0 km/h 3.2 km/h 1022 hPa 0 mm/hr 0 mm
00:09 -1.4°C -1.7°C 98% 0 km/h 1.8 km/h 1022 hPa 0 mm/hr 0 mm
00:04 -1.3°C -1.6°C 98% 0 km/h 0 km/h 1022 hPa 0 mm/hr 0 mm